スイフト-ゲーレルス彗星

64P/Swift-Gehrels (2018)

English version
Home page
Updated on June 11, 2016

---------------------------------------------------------------------

・ プロフィール

・ 軌道要素

Epoch 2018 Nov. 18.0 TT = JDT 2458440.5
T 2018 Nov. 3.86049 TT                                  Kobayashi
q   1.3931983            (2000.0)            P               Q
n   0.10471037     Peri.   97.15065     +0.78661976     -0.60256307
a   4.4580293      Node   299.99730     +0.48711326     +0.73970241
e   0.6874856      Incl.    8.94851     +0.37940747     +0.29959655
P   9.41
From 219 observations 1981 July 31-2010 May 4, mean residual 0".7.
     Nongravitational parameters A1 = +0.25, A2 = +0.0389.

・ 星図

・ 光度変化

        m1 = 9.5 + 5 logΔ + 15.0 log r

---------------------------------------------------------------------

軌道要素はM.P.E.C. 2015-M77に掲載されたものです。
星図はステラナビゲータ Ver.8 (アストロアーツ) で作成したものです。
光度グラフはComet for Windowsで作成したものです。

---------------------------------------------------------------------

Copyright(C) Seiichi Yoshida (comet@aerith.net). All rights reserved.